START_TIME,STEP,MOV.,P11,t_acc.,P23,t_acc.,P27,t_acc.,A4,t_acc.
1979-08-02 06:00:21.930 ,0,1,0.,4.8,0.,4.8,0.,4.8,0.,4.8
1979-08-02 06:00:26.740 ,0,1,0.,4.8,0.,4.8,1.,4.8,0.,4.8
1979-08-02 06:00:31.540 ,0,1,2.,4.8,0.,4.8,0.,4.8,0.,4.8
1979-08-02 06:00:36.340 ,0,1,1.,4.8,0.,4.8,1.,4.8,0.,4.8
1979-08-02 06:00:41.140 ,0,1,1.,4.8,0.,4.8,0.,4.8,0.,4.8
1979-08-02 06:00:45.930 ,4,1,1.,4.8,0.,4.8,0.,4.8,0.,4.8
1979-08-02 06:00:50.740 ,4,1,4.,4.8,0.,4.8,0.,4.8,0.,4.8
1979-08-02 06:00:55.540 ,4,1,1.,4.8,0.,4.8,0.,4.8,0.,4.8
1979-08-02 06:01:00.340 ,4,1,1.,4.8,0.,4.8,0.,4.8,0.,4.8
1979-08-02 06:01:05.140 ,4,1,2.,4.8,0.,4.8,0.,4.8,0.,4.8
1979-08-02 06:01:09.930 ,7,1,0.,4.8,0.,4.8,0.,4.8,0.,4.8
1979-08-02 06:01:14.740 ,7,1,2.,4.8,0.,4.8,0.,4.8,0.,4.8
1979-08-02 06:01:19.540 ,7,1,0.,4.8,0.,4.8,1.,4.8,0.,4.8
1979-08-02 06:01:24.340 ,7,1,3.,4.8,0.,4.8,1.,4.8,0.,4.8
1979-08-02 06:01:29.140 ,7,1,0.,4.8,0.,4.8,0.,4.8,0.,4.8
1979-08-02 06:01:33.930 ,3,1,2.,4.8,0.,4.8,1.,4.8,0.,4.8
1979-08-02 06:01:38.740 ,3,1,4.,4.8,0.,4.8,0.,4.8,0.,4.8
1979-08-02 06:01:43.540 ,3,1,2.,4.8,0.,4.8,0.,4.8,0.,4.8
1979-08-02 06:01:48.340 ,3,1,1.,4.8,0.,4.8,0.,4.8,0.,4.8
1979-08-02 06:01:53.140 ,3,1,3.,4.8,0.,4.8,0.,4.8,0.,4.8
1979-08-02 06:01:57.930 ,0,1,1.,4.8,0.,4.8,0.,4.8,0.,4.8
1979-08-02 06:02:02.740 ,0,1,1.,4.8,0.,4.8,2.,4.8,0.,4.8
1979-08-02 06:02:07.540 ,0,1,2.,4.8,0.,4.8,0.,4.8,0.,4.8
1979-08-02 06:02:12.340 ,0,1,2.,4.8,0.,4.8,0.,4.8,0.,4.8
1979-08-02 06:02:17.140 ,0,1,0.,4.8,0.,4.8,0.,4.8,0.,4.8
1979-08-02 06:02:21.930 ,4,1,0.,4.8,0.,4.8,0.,4.8,0.,4.8
1979-08-02 06:02:26.730 ,4,1,3.,4.8,0.,4.8,0.,4.8,0.,4.8
1979-08-02 06:02:31.530 ,4,1,1.,4.8,0.,4.8,0.,4.8,0.,4.8
1979-08-02 06:02:36.330 ,4,1,2.,4.8,0.,4.8,0.,4.8,0.,4.8
1979-08-02 06:02:41.130 ,4,1,2.,4.8,0.,4.8,0.,4.8,0.,4.8
1979-08-02 06:02:45.930 ,7,1,0.,4.8,0.,4.8,0.,4.8,0.,4.8
1979-08-02 06:02:50.730 ,7,1,3.,4.8,0.,4.8,0.,4.8,0.,4.8
1979-08-02 06:02:55.530 ,7,1,2.,4.8,0.,4.8,0.,4.8,0.,4.8
1979-08-02 06:03:00.330 ,7,1,0.,4.8,0.,4.8,1.,4.8,0.,4.8
1979-08-02 06:03:05.130 ,7,1,1.,4.8,0.,4.8,0.,4.8,0.,4.8
1979-08-02 06:03:09.930 ,3,1,1.,4.8,0.,4.8,0.,4.8,0.,4.8
1979-08-02 06:03:14.730 ,3,1,1.,4.8,0.,4.8,0.,4.8,0.,4.8
1979-08-02 06:03:19.530 ,3,1,2.,4.8,0.,4.8,1.,4.8,0.,4.8
1979-08-02 06:03:24.330 ,3,1,4.,4.8,0.,4.8,1.,4.8,0.,4.8
1979-08-02 06:03:29.130 ,3,1,3.,4.8,0.,4.8,0.,4.8,0.,4.8
1979-08-02 06:03:33.930 ,0,1,2.,4.8,0.,4.8,0.,4.8,0.,4.8
1979-08-02 06:03:38.730 ,0,1,0.,4.8,0.,4.8,0.,4.8,0.,4.8
1979-08-02 06:03:43.530 ,0,1,0.,4.8,0.,4.8,0.,4.8,0.,4.8
1979-08-02 06:03:48.330 ,0,1,2.,4.8,0.,4.8,0.,4.8,0.,4.8
1979-08-02 06:03:53.130 ,0,1,3.,4.8,0.,4.8,1.,4.8,0.,4.8
1979-08-02 06:03:57.930 ,4,1,2.,4.8,0.,4.8,0.,4.8,0.,4.8
1979-08-02 06:04:02.730 ,4,1,1.,4.8,0.,4.8,0.,4.8,0.,4.8
1979-08-02 06:04:07.530 ,4,1,2.,4.8,0.,4.8,0.,4.8,0.,4.8
1979-08-02 06:04:12.330 ,4,1,1.,4.8,0.,4.8,0.,4.8,0.,4.8
1979-08-02 06:04:17.130 ,4,1,0.,4.8,0.,4.8,0.,4.8,0.,4.8
1979-08-02 06:04:21.930 ,7,1,1.,4.8,0.,4.8,0.,4.8,0.,4.8
1979-08-02 06:04:26.730 ,7,1,3.,4.8,0.,4.8,0.,4.8,0.,4.8
1979-08-02 06:04:31.530 ,7,1,0.,4.8,0.,4.8,0.,4.8,0.,4.8
1979-08-02 06:04:36.330 ,7,1,0.,4.8,0.,4.8,0.,4.8,0.,4.8
1979-08-02 06:04:41.130 ,7,1,0.,4.8,0.,4.8,0.,4.8,0.,4.8
1979-08-02 06:04:45.930 ,3,1,0.,4.8,1.,4.8,0.,4.8,0.,4.8
1979-08-02 06:04:50.730 ,3,1,1.,4.8,0.,4.8,0.,4.8,0.,4.8
1979-08-02 06:04:55.530 ,3,1,1.,4.8,0.,4.8,0.,4.8,0.,4.8
1979-08-02 06:05:00.330 ,3,1,1.,4.8,0.,4.8,1.,4.8,0.,4.8
1979-08-02 06:05:05.130 ,3,1,0.,4.8,0.,4.8,0.,4.8,0.,4.8
1979-08-02 06:05:09.930 ,0,1,3.,4.8,0.,4.8,0.,4.8,0.,4.8
1979-08-02 06:05:14.730 ,0,1,2.,4.8,0.,4.8,0.,4.8,0.,4.8
1979-08-02 06:05:19.530 ,0,1,1.,4.8,0.,4.8,0.,4.8,0.,4.8
1979-08-02 06:05:24.330 ,0,1,0.,4.8,0.,4.8,0.,4.8,0.,4.8
1979-08-02 06:05:29.130 ,0,1,3.,4.8,0.,4.8,0.,4.8,0.,4.8
1979-08-02 06:05:33.930 ,0,0,0.,4.8,0.,4.8,0.,4.8,0.,4.8
1979-08-02 06:05:38.730 ,0,0,1.,4.8,0.,4.8,0.,4.8,0.,4.8
1979-08-02 06:05:43.530 ,0,0,1.,4.8,0.,4.8,0.,4.8,0.,4.8
1979-08-02 06:05:48.330 ,0,0,2.,4.8,0.,4.8,1.,4.8,0.,4.8
1979-08-02 06:05:53.130 ,0,0,1.,4.8,0.,4.8,0.,4.8,0.,4.8
1979-08-02 06:05:57.930 ,0,0,0.,4.8,0.,4.8,0.,4.8,0.,4.8
1979-08-02 06:06:02.730 ,0,0,2.,4.8,0.,4.8,0.,4.8,0.,4.8
1979-08-02 06:06:07.530 ,0,0,2.,4.8,0.,4.8,1.,4.8,0.,4.8
1979-08-02 06:06:12.330 ,0,0,0.,4.8,0.,4.8,0.,4.8,0.,4.8
1979-08-02 06:06:17.130 ,0,0,1.,4.8,0.,4.8,0.,4.8,0.,4.8
1979-08-02 06:06:21.930 ,5,0,2.,4.8,0.,4.8,0.,4.8,0.,4.8
1979-08-02 06:06:26.730 ,5,0,1.,4.8,0.,4.8,0.,4.8,0.,4.8
1979-08-02 06:06:31.530 ,5,0,2.,4.8,0.,4.8,0.,4.8,0.,4.8
1979-08-02 06:06:36.330 ,5,0,2.,4.8,0.,4.8,1.,4.8,0.,4.8
1979-08-02 06:06:41.130 ,5,0,1.,4.8,0.,4.8,0.,4.8,0.,4.8
1979-08-02 06:06:45.930 ,5,0,3.,4.8,0.,4.8,0.,4.8,0.,4.8
1979-08-02 06:06:50.730 ,5,0,3.,4.8,0.,4.8,0.,4.8,0.,4.8
1979-08-02 06:06:55.530 ,5,0,1.,4.8,0.,4.8,0.,4.8,0.,4.8
1979-08-02 06:07:00.330 ,5,0,1.,4.8,0.,4.8,1.,4.8,0.,4.8
1979-08-02 06:07:05.130 ,5,0,3.,4.8,0.,4.8,1.,4.8,0.,4.8
1979-08-02 06:07:09.930 ,4,0,2.,4.8,0.,4.8,0.,4.8,0.,4.8
1979-08-02 06:07:14.730 ,4,0,1.,4.8,0.,4.8,0.,4.8,0.,4.8
1979-08-02 06:07:19.530 ,4,0,1.,4.8,0.,4.8,0.,4.8,0.,4.8
1979-08-02 06:07:24.330 ,4,0,0.,4.8,0.,4.8,0.,4.8,0.,4.8
1979-08-02 06:07:29.130 ,4,0,4.,4.8,0.,4.8,0.,4.8,0.,4.8
1979-08-02 06:07:33.930 ,4,0,0.,4.8,0.,4.8,0.,4.8,0.,4.8
1979-08-02 06:07:38.730 ,4,0,1.,4.8,0.,4.8,0.,4.8,0.,4.8
1979-08-02 06:07:43.530 ,4,0,0.,4.8,0.,4.8,0.,4.8,0.,4.8
1979-08-02 06:07:48.330 ,4,0,2.,4.8,0.,4.8,0.,4.8,0.,4.8
1979-08-02 06:07:53.130 ,4,0,0.,4.8,0.,4.8,0.,4.8,0.,4.8
1979-08-02 06:07:57.930 ,3,0,3.,4.8,0.,4.8,0.,4.8,0.,4.8
1979-08-02 06:08:02.730 ,3,0,2.,4.8,0.,4.8,0.,4.8,0.,4.8
1979-08-02 06:08:07.530 ,3,0,0.,4.8,0.,4.8,0.,4.8,0.,4.8
1979-08-02 06:08:12.330 ,3,0,0.,4.8,1.,4.8,0.,4.8,0.,4.8
1979-08-02 06:08:17.130 ,3,0,1.,4.8,0.,4.8,0.,4.8,0.,4.8
1979-08-02 06:08:21.930 ,3,0,3.,4.8,0.,4.8,0.,4.8,0.,4.8
1979-08-02 06:08:26.730 ,3,0,3.,4.8,0.,4.8,0.,4.8,0.,4.8
1979-08-02 06:08:31.530 ,3,0,1.,4.8,0.,4.8,1.,4.8,0.,4.8
1979-08-02 06:08:36.330 ,3,0,1.,4.8,0.,4.8,0.,4.8,0.,4.8
1979-08-02 06:08:41.130 ,3,0,0.,4.8,0.,4.8,0.,4.8,0.,4.8
1979-08-02 06:08:45.930 ,2,0,1.,4.8,0.,4.8,0.,4.8,0.,4.8
1979-08-02 06:08:50.730 ,2,0,1.,4.8,0.,4.8,1.,4.8,0.,4.8
1979-08-02 06:08:55.530 ,2,0,3.,4.8,0.,4.8,0.,4.8,0.,4.8
1979-08-02 06:09:00.330 ,2,0,3.,4.8,0.,4.8,0.,4.8,0.,4.8
1979-08-02 06:09:05.130 ,2,0,1.,4.8,0.,4.8,0.,4.8,0.,4.8
1979-08-02 06:09:09.930 ,2,0,1.,4.8,0.,4.8,0.,4.8,0.,4.8
1979-08-02 06:09:14.730 ,2,0,2.,4.8,1.,4.8,0.,4.8,0.,4.8
1979-08-02 06:09:19.530 ,2,0,2.,4.8,0.,4.8,0.,4.8,0.,4.8
1979-08-02 06:09:24.330 ,2,0,4.,4.8,0.,4.8,0.,4.8,0.,4.8
1979-08-02 06:09:29.130 ,2,0,1.,4.8,0.,4.8,0.,4.8,0.,4.8
1979-08-02 06:09:33.930 ,1,0,2.,4.8,1.,4.8,0.,4.8,0.,4.8
1979-08-02 06:09:38.730 ,1,0,1.,4.8,0.,4.8,0.,4.8,0.,4.8
1979-08-02 06:09:43.530 ,1,0,0.,4.8,0.,4.8,0.,4.8,0.,4.8
1979-08-02 06:09:48.330 ,1,0,1.,4.8,0.,4.8,0.,4.8,0.,4.8
1979-08-02 06:09:53.130 ,1,0,1.,4.8,0.,4.8,0.,4.8,0.,4.8
1979-08-02 06:09:57.930 ,1,0,2.,4.8,1.,4.8,0.,4.8,0.,4.8
1979-08-02 06:10:02.730 ,1,0,2.,4.8,0.,4.8,0.,4.8,0.,4.8
1979-08-02 06:10:07.530 ,1,0,0.,4.8,0.,4.8,0.,4.8,0.,4.8
1979-08-02 06:10:12.330 ,1,0,4.,4.8,0.,4.8,1.,4.8,0.,4.8
1979-08-02 06:10:17.130 ,1,0,1.,4.8,0.,4.8,1.,4.8,0.,4.8
1979-08-02 06:10:21.930 ,0,0,1.,4.8,0.,4.8,0.,4.8,0.,4.8
1979-08-02 06:10:26.730 ,0,0,4.,4.8,0.,4.8,2.,4.8,0.,4.8
1979-08-02 06:10:31.530 ,0,0,0.,4.8,0.,4.8,0.,4.8,0.,4.8
1979-08-02 06:10:36.330 ,0,0,1.,4.8,0.,4.8,0.,4.8,0.,4.8
1979-08-02 06:10:41.130 ,0,0,1.,4.8,1.,4.8,0.,4.8,0.,4.8
1979-08-02 06:10:45.930 ,0,0,2.,4.8,0.,4.8,0.,4.8,0.,4.8
1979-08-02 06:10:50.730 ,0,0,0.,4.8,0.,4.8,0.,4.8,0.,4.8
1979-08-02 06:10:55.530 ,0,0,3.,4.8,0.,4.8,0.,4.8,0.,4.8
1979-08-02 06:11:00.330 ,0,0,3.,4.8,0.,4.8,0.,4.8,0.,4.8
1979-08-02 06:11:05.130 ,0,0,3.,4.8,0.,4.8,0.,4.8,0.,4.8
1979-08-02 06:11:09.930 ,0,0,3.,4.8,0.,4.8,0.,4.8,0.,4.8
1979-08-02 06:11:14.730 ,0,0,6.,4.8,0.,4.8,0.,4.8,0.,4.8
1979-08-02 06:11:19.530 ,0,0,1.,4.8,0.,4.8,0.,4.8,0.,4.8
1979-08-02 06:11:24.330 ,0,0,1.,4.8,0.,4.8,0.,4.8,0.,4.8
1979-08-02 06:11:29.130 ,0,0,1.,4.8,0.,4.8,0.,4.8,0.,4.8
1979-08-02 06:11:33.930 ,0,0,0.,4.8,0.,4.8,0.,4.8,0.,4.8
1979-08-02 06:11:38.730 ,0,0,1.,4.8,0.,4.8,0.,4.8,0.,4.8
1979-08-02 06:11:43.530 ,0,0,1.,4.8,0.,4.8,1.,4.8,0.,4.8
1979-08-02 06:11:48.330 ,0,0,1.,4.8,0.,4.8,0.,4.8,0.,4.8
1979-08-02 06:11:53.130 ,0,0,4.,4.8,0.,4.8,0.,4.8,0.,4.8
1979-08-02 06:11:57.930 ,1,0,4.,4.8,0.,4.8,0.,4.8,0.,4.8
1979-08-02 06:12:02.730 ,1,0,2.,4.8,0.,4.8,0.,4.8,0.,4.8
1979-08-02 06:12:07.530 ,1,0,0.,4.8,0.,4.8,0.,4.8,0.,4.8
1979-08-02 06:12:12.330 ,1,0,0.,4.8,1.,4.8,0.,4.8,0.,4.8
1979-08-02 06:12:17.130 ,1,0,1.,4.8,0.,4.8,0.,4.8,0.,4.8
1979-08-02 06:12:21.930 ,1,0,1.,4.8,0.,4.8,0.,4.8,0.,4.8
1979-08-02 06:12:26.730 ,1,0,0.,4.8,0.,4.8,0.,4.8,0.,4.8
1979-08-02 06:12:31.530 ,1,0,3.,4.8,0.,4.8,0.,4.8,0.,4.8
1979-08-02 06:12:36.330 ,1,0,2.,4.8,0.,4.8,0.,4.8,0.,4.8
1979-08-02 06:12:41.130 ,1,0,2.,4.8,0.,4.8,0.,4.8,0.,4.8
1979-08-02 06:12:45.930 ,2,0,1.,4.8,0.,4.8,0.,4.8,0.,4.8
1979-08-02 06:12:50.730 ,2,0,1.,4.8,0.,4.8,0.,4.8,0.,4.8
1979-08-02 06:12:55.530 ,2,0,1.,4.8,0.,4.8,0.,4.8,0.,4.8
1979-08-02 06:13:00.330 ,2,0,3.,4.8,0.,4.8,0.,4.8,0.,4.8
1979-08-02 06:13:05.130 ,2,0,2.,4.8,2.,4.8,0.,4.8,0.,4.8
1979-08-02 06:13:09.930 ,2,0,2.,4.8,0.,4.8,0.,4.8,0.,4.8
1979-08-02 06:13:14.730 ,2,0,0.,4.8,0.,4.8,0.,4.8,0.,4.8
1979-08-02 06:13:19.530 ,2,0,1.,4.8,0.,4.8,0.,4.8,0.,4.8
1979-08-02 06:13:24.330 ,2,0,1.,4.8,0.,4.8,0.,4.8,0.,4.8
1979-08-02 06:13:29.130 ,2,0,2.,4.8,0.,4.8,0.,4.8,0.,4.8
1979-08-02 06:13:33.930 ,3,0,0.,4.8,0.,4.8,0.,4.8,0.,4.8
1979-08-02 06:13:38.730 ,3,0,2.,4.8,0.,4.8,0.,4.8,0.,4.8
1979-08-02 06:13:43.530 ,3,0,3.,4.8,0.,4.8,0.,4.8,0.,4.8
1979-08-02 06:13:48.330 ,3,0,0.,4.8,0.,4.8,0.,4.8,0.,4.8
1979-08-02 06:13:53.130 ,3,0,1.,4.8,0.,4.8,0.,4.8,0.,4.8
1979-08-02 06:13:57.930 ,3,0,1.,4.8,0.,4.8,0.,4.8,0.,4.8
1979-08-02 06:14:02.730 ,3,0,2.,4.8,0.,4.8,1.,4.8,0.,4.8
1979-08-02 06:14:07.530 ,3,0,2.,4.8,0.,4.8,0.,4.8,0.,4.8
1979-08-02 06:14:12.330 ,3,0,2.,4.8,0.,4.8,0.,4.8,0.,4.8
1979-08-02 06:14:17.130 ,3,0,0.,4.8,0.,4.8,0.,4.8,0.,4.8
1979-08-02 06:14:21.930 ,4,0,3.,4.8,1.,4.8,0.,4.8,0.,4.8
1979-08-02 06:14:26.730 ,4,0,3.,4.8,0.,4.8,0.,4.8,0.,4.8
1979-08-02 06:14:31.530 ,4,0,1.,4.8,0.,4.8,0.,4.8,0.,4.8
1979-08-02 06:14:36.330 ,4,0,1.,4.8,0.,4.8,0.,4.8,0.,4.8
1979-08-02 06:14:41.130 ,4,0,1.,4.8,0.,4.8,1.,4.8,0.,4.8
1979-08-02 06:14:45.930 ,4,0,1.,4.8,0.,4.8,0.,4.8,0.,4.8
1979-08-02 06:14:50.730 ,4,0,2.,4.8,0.,4.8,0.,4.8,0.,4.8
1979-08-02 06:14:55.530 ,4,0,1.,4.8,0.,4.8,0.,4.8,0.,4.8
1979-08-02 06:15:00.330 ,4,0,0.,4.8,0.,4.8,0.,4.8,0.,4.8
1979-08-02 06:15:05.130 ,4,0,2.,4.8,0.,4.8,0.,4.8,0.,4.8
1979-08-02 06:15:09.930 ,5,0,3.,4.8,0.,4.8,0.,4.8,0.,4.8
1979-08-02 06:15:14.730 ,5,0,2.,4.8,0.,4.8,1.,4.8,0.,4.8
1979-08-02 06:15:19.530 ,5,0,1.,4.8,0.,4.8,0.,4.8,0.,4.8
1979-08-02 06:15:24.330 ,5,0,6.,4.8,0.,4.8,0.,4.8,0.,4.8
1979-08-02 06:15:29.130 ,5,0,4.,4.8,0.,4.8,0.,4.8,0.,4.8
1979-08-02 06:15:33.930 ,5,0,2.,4.8,0.,4.8,0.,4.8,0.,4.8
1979-08-02 06:15:38.730 ,5,0,1.,4.8,0.,4.8,0.,4.8,0.,4.8
1979-08-02 06:15:43.530 ,5,0,0.,4.8,0.,4.8,0.,4.8,0.,4.8
1979-08-02 06:15:48.330 ,5,0,1.,4.8,0.,4.8,0.,4.8,0.,4.8
1979-08-02 06:15:53.130 ,5,0,3.,4.8,0.,4.8,0.,4.8,0.,4.8
1979-08-02 06:15:57.930 ,6,0,0.,4.8,0.,4.8,0.,4.8,0.,4.8
1979-08-02 06:16:02.730 ,6,0,1.,4.8,0.,4.8,0.,4.8,0.,4.8
1979-08-02 06:16:07.530 ,6,0,1.,4.8,0.,4.8,1.,4.8,0.,4.8
1979-08-02 06:16:12.330 ,6,0,0.,4.8,0.,4.8,0.,4.8,0.,4.8
1979-08-02 06:16:17.130 ,6,0,1.,4.8,0.,4.8,0.,4.8,0.,4.8
1979-08-02 06:16:21.930 ,6,0,1.,4.8,0.,4.8,1.,4.8,0.,4.8
1979-08-02 06:16:26.730 ,6,0,2.,4.8,0.,4.8,0.,4.8,0.,4.8
1979-08-02 06:16:31.530 ,6,0,1.,4.8,0.,4.8,0.,4.8,0.,4.8
1979-08-02 06:16:36.330 ,6,0,4.,4.8,0.,4.8,2.,4.8,0.,4.8
1979-08-02 06:16:41.130 ,6,0,2.,4.8,0.,4.8,0.,4.8,0.,4.8
1979-08-02 06:16:45.930 ,7,0,2.,4.8,0.,4.8,0.,4.8,0.,4.8
1979-08-02 06:16:50.730 ,7,0,2.,4.8,0.,4.8,0.,4.8,0.,4.8
1979-08-02 06:16:55.530 ,7,0,0.,4.8,0.,4.8,0.,4.8,0.,4.8
1979-08-02 06:17:00.330 ,7,0,0.,4.8,0.,4.8,0.,4.8,0.,4.8
1979-08-02 06:17:05.130 ,7,0,1.,4.8,0.,4.8,0.,4.8,0.,4.8
1979-08-02 06:17:09.930 ,7,0,0.,4.8,0.,4.8,0.,4.8,0.,4.8
1979-08-02 06:17:14.730 ,7,0,2.,4.8,0.,4.8,0.,4.8,0.,4.8
1979-08-02 06:17:19.530 ,7,0,0.,4.8,0.,4.8,0.,4.8,0.,4.8
1979-08-02 06:17:24.330 ,7,0,1.,4.8,0.,4.8,0.,4.8,0.,4.8
1979-08-02 06:17:29.130 ,7,0,2.,4.8,0.,4.8,0.,4.8,0.,4.8
1979-08-02 06:17:33.930 ,7,0,1.,4.8,0.,4.8,0.,4.8,0.,4.8
1979-08-02 06:17:38.730 ,7,0,0.,4.8,0.,4.8,0.,4.8,0.,4.8
1979-08-02 06:17:43.530 ,7,0,2.,4.8,0.,4.8,0.,4.8,0.,4.8
1979-08-02 06:17:48.330 ,7,0,0.,4.8,0.,4.8,0.,4.8,0.,4.8
1979-08-02 06:17:53.130 ,7,0,0.,4.8,0.,4.8,0.,4.8,0.,4.8
1979-08-02 06:17:57.930 ,7,0,1.,4.8,0.,4.8,0.,4.8,0.,4.8
1979-08-02 06:18:02.730 ,7,0,1.,4.8,0.,4.8,0.,4.8,0.,4.8
1979-08-02 06:18:07.530 ,7,0,1.,4.8,0.,4.8,0.,4.8,0.,4.8
1979-08-02 06:18:12.330 ,7,0,2.,4.8,0.,4.8,0.,4.8,0.,4.8
1979-08-02 06:18:17.130 ,7,0,2.,4.8,0.,4.8,0.,4.8,0.,4.8
1979-08-02 06:18:21.930 ,6,0,2.,4.8,0.,4.8,0.,4.8,0.,4.8
1979-08-02 06:18:26.730 ,6,0,0.,4.8,0.,4.8,0.,4.8,0.,4.8
1979-08-02 06:18:31.530 ,6,0,1.,4.8,1.,4.8,0.,4.8,0.,4.8
1979-08-02 06:18:36.330 ,6,0,2.,4.8,0.,4.8,0.,4.8,0.,4.8
1979-08-02 06:18:41.130 ,6,0,2.,4.8,0.,4.8,0.,4.8,0.,4.8
1979-08-02 06:18:45.930 ,6,0,2.,4.8,0.,4.8,0.,4.8,0.,4.8
1979-08-02 06:18:50.730 ,6,0,3.,4.8,0.,4.8,0.,4.8,0.,4.8
1979-08-02 06:18:55.530 ,6,0,2.,4.8,0.,4.8,0.,4.8,0.,4.8
1979-08-02 06:19:00.330 ,6,0,4.,4.8,0.,4.8,0.,4.8,0.,4.8
1979-08-02 06:19:05.130 ,6,0,0.,4.8,1.,4.8,1.,4.8,0.,4.8
1979-08-02 06:19:09.930 ,5,0,4.,4.8,0.,4.8,0.,4.8,0.,4.8
1979-08-02 06:19:14.730 ,5,0,1.,4.8,0.,4.8,0.,4.8,0.,4.8
1979-08-02 06:19:19.530 ,5,0,3.,4.8,0.,4.8,0.,4.8,0.,4.8
1979-08-02 06:19:24.330 ,5,0,0.,4.8,0.,4.8,0.,4.8,0.,4.8
1979-08-02 06:19:29.130 ,5,0,1.,4.8,0.,4.8,0.,4.8,0.,4.8
1979-08-02 06:19:33.930 ,5,0,0.,4.8,0.,4.8,0.,4.8,0.,4.8
1979-08-02 06:19:38.730 ,5,0,0.,4.8,0.,4.8,0.,4.8,0.,4.8
1979-08-02 06:19:43.530 ,5,0,1.,4.8,0.,4.8,0.,4.8,0.,4.8
1979-08-02 06:19:48.330 ,5,0,0.,4.8,0.,4.8,0.,4.8,0.,4.8
1979-08-02 06:19:53.130 ,5,0,1.,4.8,0.,4.8,0.,4.8,0.,4.8
1979-08-02 06:19:57.930 ,4,0,0.,4.8,0.,4.8,0.,4.8,0.,4.8
1979-08-02 06:20:02.730 ,4,0,1.,4.8,0.,4.8,0.,4.8,0.,4.8
1979-08-02 06:20:07.530 ,4,0,2.,4.8,0.,4.8,0.,4.8,0.,4.8
1979-08-02 06:20:12.330 ,4,0,0.,4.8,0.,4.8,0.,4.8,0.,4.8
1979-08-02 06:20:17.130 ,4,0,1.,4.8,0.,4.8,0.,4.8,0.,4.8
1979-08-02 06:20:21.930 ,4,0,1.,4.8,1.,4.8,0.,4.8,0.,4.8
1979-08-02 06:20:26.730 ,4,0,2.,4.8,0.,4.8,0.,4.8,0.,4.8
1979-08-02 06:20:31.530 ,4,0,1.,4.8,0.,4.8,0.,4.8,0.,4.8
1979-08-02 06:20:36.330 ,4,0,1.,4.8,0.,4.8,0.,4.8,0.,4.8
1979-08-02 06:20:41.130 ,4,0,3.,4.8,0.,4.8,0.,4.8,0.,4.8
1979-08-02 06:20:45.930 ,3,0,2.,4.8,0.,4.8,0.,4.8,0.,4.8
1979-08-02 06:20:50.730 ,3,0,3.,4.8,0.,4.8,0.,4.8,0.,4.8
1979-08-02 06:20:55.530 ,3,0,1.,4.8,0.,4.8,0.,4.8,0.,4.8
1979-08-02 06:21:00.330 ,3,0,0.,4.8,0.,4.8,0.,4.8,0.,4.8
1979-08-02 06:21:05.130 ,3,0,1.,4.8,0.,4.8,0.,4.8,0.,4.8
1979-08-02 06:21:09.930 ,3,0,3.,4.8,0.,4.8,0.,4.8,0.,4.8
1979-08-02 06:21:14.730 ,3,0,1.,4.8,1.,4.8,0.,4.8,0.,4.8
1979-08-02 06:21:19.530 ,3,0,1.,4.8,0.,4.8,0.,4.8,0.,4.8
1979-08-02 06:21:24.330 ,3,0,1.,4.8,0.,4.8,0.,4.8,0.,4.8
1979-08-02 06:21:29.130 ,3,0,0.,4.8,0.,4.8,0.,4.8,0.,4.8
1979-08-02 06:21:33.930 ,2,0,3.,4.8,0.,4.8,0.,4.8,0.,4.8
1979-08-02 06:21:38.730 ,2,0,1.,4.8,0.,4.8,0.,4.8,0.,4.8
1979-08-02 06:21:43.530 ,2,0,3.,4.8,0.,4.8,0.,4.8,0.,4.8
1979-08-02 06:21:48.330 ,2,0,1.,4.8,0.,4.8,2.,4.8,0.,4.8
1979-08-02 06:21:53.130 ,2,0,2.,4.8,0.,4.8,1.,4.8,0.,4.8
1979-08-02 06:21:57.930 ,2,0,2.,4.8,0.,4.8,0.,4.8,0.,4.8
1979-08-02 06:22:02.730 ,2,0,0.,4.8,0.,4.8,1.,4.8,0.,4.8
1979-08-02 06:22:07.530 ,2,0,1.,4.8,0.,4.8,0.,4.8,0.,4.8
1979-08-02 06:22:12.330 ,2,0,1.,4.8,0.,4.8,1.,4.8,0.,4.8
1979-08-02 06:22:17.130 ,2,0,0.,4.8,0.,4.8,0.,4.8,0.,4.8
1979-08-02 06:22:21.930 ,1,0,1.,4.8,0.,4.8,0.,4.8,0.,4.8
1979-08-02 06:22:26.730 ,1,0,1.,4.8,0.,4.8,0.,4.8,0.,4.8
1979-08-02 06:22:31.530 ,1,0,1.,4.8,0.,4.8,0.,4.8,0.,4.8
1979-08-02 06:22:36.330 ,1,0,2.,4.8,0.,4.8,0.,4.8,0.,4.8
1979-08-02 06:22:41.130 ,1,0,1.,4.8,0.,4.8,0.,4.8,0.,4.8
1979-08-02 06:22:45.930 ,1,0,1.,4.8,0.,4.8,0.,4.8,0.,4.8
1979-08-02 06:22:50.730 ,1,0,1.,4.8,0.,4.8,0.,4.8,0.,4.8
1979-08-02 06:22:55.530 ,1,0,2.,4.8,0.,4.8,0.,4.8,0.,4.8
1979-08-02 06:23:00.330 ,1,0,0.,4.8,0.,4.8,1.,4.8,0.,4.8
1979-08-02 06:23:05.130 ,1,0,4.,4.8,0.,4.8,0.,4.8,0.,4.8
1979-08-02 06:23:09.930 ,0,0,1.,4.8,0.,4.8,2.,4.8,0.,4.8
1979-08-02 06:23:14.730 ,0,0,1.,4.8,0.,4.8,0.,4.8,0.,4.8
1979-08-02 06:23:19.530 ,0,0,2.,4.8,0.,4.8,0.,4.8,0.,4.8
1979-08-02 06:23:24.330 ,0,0,2.,4.8,0.,4.8,0.,4.8,0.,4.8
1979-08-02 06:23:29.130 ,0,0,3.,4.8,0.,4.8,0.,4.8,0.,4.8
1979-08-02 06:23:33.930 ,0,0,1.,4.8,0.,4.8,1.,4.8,0.,4.8
1979-08-02 06:23:38.730 ,0,0,2.,4.8,0.,4.8,0.,4.8,0.,4.8
1979-08-02 06:23:43.530 ,0,0,2.,4.8,0.,4.8,0.,4.8,0.,4.8
1979-08-02 06:23:48.330 ,0,0,1.,4.8,0.,4.8,0.,4.8,0.,4.8
1979-08-02 06:23:53.130 ,0,0,0.,4.8,0.,4.8,0.,4.8,0.,4.8
1979-08-02 06:23:57.930 ,0,0,2.,4.8,0.,4.8,0.,4.8,0.,4.8
1979-08-02 06:24:02.730 ,0,0,2.,4.8,0.,4.8,0.,4.8,0.,4.8
1979-08-02 06:24:07.530 ,0,0,2.,4.8,0.,4.8,0.,4.8,0.,4.8
1979-08-02 06:24:12.330 ,0,0,0.,4.8,0.,4.8,0.,4.8,0.,4.8
1979-08-02 06:24:17.130 ,0,0,1.,4.8,0.,4.8,0.,4.8,0.,4.8
1979-08-02 06:24:21.930 ,0,0,1.,4.8,0.,4.8,0.,4.8,0.,4.8
1979-08-02 06:24:26.730 ,0,0,2.,4.8,0.,4.8,0.,4.8,0.,4.8
1979-08-02 06:24:31.530 ,0,0,2.,4.8,0.,4.8,0.,4.8,0.,4.8
1979-08-02 06:24:36.330 ,0,0,1.,4.8,0.,4.8,0.,4.8,0.,4.8
1979-08-02 06:24:41.130 ,0,0,0.,4.8,0.,4.8,0.,4.8,0.,4.8
1979-08-02 06:24:45.930 ,1,0,2.,4.8,0.,4.8,0.,4.8,0.,4.8
1979-08-02 06:24:50.730 ,1,0,2.,4.8,0.,4.8,0.,4.8,0.,4.8
1979-08-02 06:24:55.530 ,1,0,0.,4.8,0.,4.8,0.,4.8,0.,4.8
1979-08-02 06:25:00.330 ,1,0,2.,4.8,0.,4.8,1.,4.8,0.,4.8
1979-08-02 06:25:05.130 ,1,0,1.,4.8,0.,4.8,0.,4.8,0.,4.8
1979-08-02 06:25:09.930 ,1,0,2.,4.8,0.,4.8,0.,4.8,0.,4.8
1979-08-02 06:25:14.730 ,1,0,1.,4.8,0.,4.8,1.,4.8,0.,4.8
1979-08-02 06:25:19.530 ,1,0,0.,4.8,0.,4.8,0.,4.8,0.,4.8
1979-08-02 06:25:24.330 ,1,0,0.,4.8,0.,4.8,0.,4.8,0.,4.8
1979-08-02 06:25:29.130 ,1,0,0.,4.8,0.,4.8,0.,4.8,0.,4.8
1979-08-02 06:25:33.930 ,2,0,1.,4.8,0.,4.8,0.,4.8,0.,4.8
1979-08-02 06:25:38.730 ,2,0,1.,4.8,0.,4.8,0.,4.8,0.,4.8
1979-08-02 06:25:43.530 ,2,0,4.,4.8,0.,4.8,0.,4.8,0.,4.8
1979-08-02 06:25:48.330 ,2,0,1.,4.8,0.,4.8,0.,4.8,0.,4.8
1979-08-02 06:25:53.130 ,2,0,3.,4.8,0.,4.8,0.,4.8,0.,4.8
1979-08-02 06:25:57.930 ,2,0,0.,4.8,0.,4.8,1.,4.8,0.,4.8
1979-08-02 06:26:02.730 ,2,0,1.,4.8,0.,4.8,0.,4.8,0.,4.8
1979-08-02 06:26:07.530 ,2,0,1.,4.8,0.,4.8,0.,4.8,0.,4.8
1979-08-02 06:26:12.330 ,2,0,0.,4.8,0.,4.8,0.,4.8,0.,4.8
1979-08-02 06:26:17.130 ,2,0,2.,4.8,0.,4.8,0.,4.8,0.,4.8
1979-08-02 06:26:21.930 ,3,0,2.,4.8,0.,4.8,0.,4.8,0.,4.8
1979-08-02 06:26:26.730 ,3,0,2.,4.8,0.,4.8,0.,4.8,0.,4.8
1979-08-02 06:26:31.530 ,3,0,3.,4.8,0.,4.8,1.,4.8,0.,4.8
1979-08-02 06:26:36.330 ,3,0,6.,4.8,0.,4.8,0.,4.8,0.,4.8
1979-08-02 06:26:41.130 ,3,0,1.,4.8,0.,4.8,0.,4.8,0.,4.8
1979-08-02 06:26:45.930 ,3,0,1.,4.8,0.,4.8,1.,4.8,0.,4.8
1979-08-02 06:26:50.730 ,3,0,2.,4.8,0.,4.8,0.,4.8,0.,4.8
1979-08-02 06:26:55.530 ,3,0,2.,4.8,1.,4.8,0.,4.8,0.,4.8
1979-08-02 06:27:00.330 ,3,0,0.,4.8,0.,4.8,0.,4.8,0.,4.8
1979-08-02 06:27:05.130 ,3,0,1.,4.8,0.,4.8,0.,4.8,0.,4.8
1979-08-02 06:27:09.930 ,4,0,1.,4.8,0.,4.8,0.,4.8,0.,4.8
1979-08-02 06:27:14.730 ,4,0,0.,4.8,0.,4.8,1.,4.8,0.,4.8
1979-08-02 06:27:19.530 ,4,0,5.,4.8,0.,4.8,0.,4.8,0.,4.8
1979-08-02 06:27:24.330 ,4,0,1.,4.8,0.,4.8,0.,4.8,0.,4.8
1979-08-02 06:27:29.130 ,4,0,2.,4.8,0.,4.8,0.,4.8,0.,4.8
1979-08-02 06:27:33.930 ,4,0,3.,4.8,1.,4.8,0.,4.8,0.,4.8
1979-08-02 06:27:38.730 ,4,0,0.,4.8,0.,4.8,0.,4.8,0.,4.8
1979-08-02 06:27:43.530 ,4,0,1.,4.8,0.,4.8,0.,4.8,0.,4.8
1979-08-02 06:27:48.330 ,4,0,2.,4.8,0.,4.8,0.,4.8,0.,4.8
1979-08-02 06:27:53.130 ,4,0,1.,4.8,0.,4.8,0.,4.8,0.,4.8
1979-08-02 06:27:57.930 ,5,0,3.,4.8,0.,4.8,0.,4.8,0.,4.8
1979-08-02 06:28:02.730 ,5,0,0.,4.8,0.,4.8,0.,4.8,0.,4.8
1979-08-02 06:28:07.530 ,5,0,2.,4.8,0.,4.8,0.,4.8,0.,4.8
1979-08-02 06:28:12.330 ,5,0,3.,4.8,0.,4.8,0.,4.8,0.,4.8
1979-08-02 06:28:17.130 ,5,0,0.,4.8,0.,4.8,1.,4.8,0.,4.8
1979-08-02 06:28:21.930 ,5,0,1.,4.8,0.,4.8,0.,4.8,0.,4.8
1979-08-02 06:28:26.730 ,5,0,1.,4.8,0.,4.8,0.,4.8,0.,4.8
1979-08-02 06:28:31.530 ,5,0,3.,4.8,0.,4.8,0.,4.8,0.,4.8
1979-08-02 06:28:36.330 ,5,0,2.,4.8,0.,4.8,0.,4.8,0.,4.8
1979-08-02 06:28:41.130 ,5,0,0.,4.8,0.,4.8,0.,4.8,0.,4.8
1979-08-02 06:28:45.930 ,6,0,2.,4.8,0.,4.8,0.,4.8,0.,4.8
1979-08-02 06:28:50.730 ,6,0,1.,4.8,0.,4.8,0.,4.8,0.,4.8
1979-08-02 06:28:55.530 ,6,0,1.,4.8,0.,4.8,0.,4.8,0.,4.8
1979-08-02 06:29:00.330 ,6,0,1.,4.8,0.,4.8,0.,4.8,0.,4.8
1979-08-02 06:29:05.130 ,6,0,0.,4.8,0.,4.8,0.,4.8,0.,4.8
1979-08-02 06:29:09.930 ,6,0,3.,4.8,0.,4.8,0.,4.8,0.,4.8
1979-08-02 06:29:14.730 ,6,0,1.,4.8,0.,4.8,0.,4.8,0.,4.8
1979-08-02 06:29:19.530 ,6,0,3.,4.8,0.,4.8,0.,4.8,0.,4.8
1979-08-02 06:29:24.330 ,6,0,0.,4.8,0.,4.8,0.,4.8,0.,4.8
1979-08-02 06:29:29.130 ,6,0,1.,4.8,0.,4.8,0.,4.8,0.,4.8
1979-08-02 06:29:33.930 ,7,0,2.,4.8,0.,4.8,0.,4.8,0.,4.8
1979-08-02 06:29:38.730 ,7,0,1.,4.8,0.,4.8,0.,4.8,0.,4.8
1979-08-02 06:29:43.530 ,7,0,0.,4.8,0.,4.8,0.,4.8,0.,4.8
1979-08-02 06:29:48.330 ,7,0,2.,4.8,0.,4.8,0.,4.8,0.,4.8
1979-08-02 06:29:53.130 ,7,0,1.,4.8,0.,4.8,0.,4.8,0.,4.8
1979-08-02 06:29:57.930 ,7,0,1.,4.8,0.,4.8,0.,4.8,0.,4.8
1979-08-02 06:30:02.730 ,7,0,0.,4.8,0.,4.8,0.,4.8,0.,4.8
1979-08-02 06:30:07.530 ,7,0,0.,4.8,0.,4.8,1.,4.8,0.,4.8
1979-08-02 06:30:12.330 ,7,0,0.,4.8,0.,4.8,0.,4.8,0.,4.8
1979-08-02 06:30:17.130 ,7,0,1.,4.8,0.,4.8,0.,4.8,0.,4.8
1979-08-02 06:30:21.930 ,7,0,1.,4.8,0.,4.8,0.,4.8,0.,4.8
1979-08-02 06:30:26.730 ,7,0,1.,4.8,0.,4.8,1.,4.8,0.,4.8
1979-08-02 06:30:31.530 ,7,0,3.,4.8,0.,4.8,0.,4.8,0.,4.8
1979-08-02 06:30:36.330 ,7,0,1.,4.8,0.,4.8,0.,4.8,0.,4.8
1979-08-02 06:30:41.130 ,7,0,0.,4.8,0.,4.8,0.,4.8,0.,4.8
1979-08-02 06:30:45.930 ,7,0,2.,4.8,0.,4.8,0.,4.8,0.,4.8
1979-08-02 06:30:50.730 ,7,0,1.,4.8,0.,4.8,0.,4.8,0.,4.8
1979-08-02 06:30:55.530 ,7,0,1.,4.8,0.,4.8,0.,4.8,0.,4.8
1979-08-02 06:31:00.330 ,7,0,0.,4.8,0.,4.8,0.,4.8,0.,4.8
1979-08-02 06:31:05.130 ,7,0,0.,4.8,0.,4.8,0.,4.8,0.,4.8
1979-08-02 06:31:09.930 ,6,0,0.,4.8,0.,4.8,0.,4.8,0.,4.8
1979-08-02 06:31:14.730 ,6,0,1.,4.8,0.,4.8,0.,4.8,0.,4.8
1979-08-02 06:31:19.530 ,6,0,,0,,0,,0,,0
1979-08-02 06:31:24.330 ,6,0,3.,4.8,0.,4.8,0.,4.8,0.,4.8
1979-08-02 06:31:29.130 ,6,0,3.,4.8,0.,4.8,0.,4.8,0.,4.8
1979-08-02 06:31:33.930 ,6,0,3.,4.8,0.,4.8,0.,4.8,0.,4.8
1979-08-02 06:31:38.730 ,6,0,2.,4.8,0.,4.8,0.,4.8,0.,4.8
1979-08-02 06:31:43.530 ,6,0,2.,4.8,0.,4.8,0.,4.8,0.,4.8
1979-08-02 06:31:48.330 ,6,0,2.,4.8,0.,4.8,0.,4.8,0.,4.8
1979-08-02 06:31:53.130 ,6,0,2.,4.8,0.,4.8,0.,4.8,0.,4.8
1979-08-02 06:31:57.930 ,5,0,4.,4.8,0.,4.8,0.,4.8,0.,4.8
1979-08-02 06:32:02.730 ,5,0,3.,4.8,0.,4.8,0.,4.8,0.,4.8
1979-08-02 06:32:07.530 ,5,0,1.,4.8,0.,4.8,0.,4.8,0.,4.8
1979-08-02 06:32:12.330 ,5,0,2.,4.8,0.,4.8,0.,4.8,0.,4.8
1979-08-02 06:32:17.130 ,5,0,0.,4.8,0.,4.8,0.,4.8,0.,4.8
1979-08-02 06:32:21.930 ,5,0,2.,4.8,0.,4.8,0.,4.8,0.,4.8
1979-08-02 06:32:26.730 ,5,0,5.,4.8,0.,4.8,0.,4.8,0.,4.8
1979-08-02 06:32:31.530 ,5,0,3.,4.8,0.,4.8,0.,4.8,0.,4.8
1979-08-02 06:32:36.330 ,5,0,2.,4.8,0.,4.8,0.,4.8,0.,4.8
1979-08-02 06:32:41.130 ,5,0,1.,4.8,0.,4.8,0.,4.8,0.,4.8
1979-08-02 06:32:45.930 ,4,0,0.,4.8,0.,4.8,0.,4.8,0.,4.8
1979-08-02 06:32:50.730 ,4,0,2.,4.8,1.,4.8,0.,4.8,0.,4.8
1979-08-02 06:32:55.530 ,4,0,2.,4.8,0.,4.8,0.,4.8,0.,4.8
1979-08-02 06:33:00.330 ,4,0,2.,4.8,0.,4.8,1.,4.8,0.,4.8
1979-08-02 06:33:05.130 ,4,0,1.,4.8,0.,4.8,0.,4.8,0.,4.8
1979-08-02 06:33:09.930 ,4,0,2.,4.8,0.,4.8,0.,4.8,0.,4.8
1979-08-02 06:33:14.730 ,4,0,6.,4.8,0.,4.8,0.,4.8,0.,4.8